When you browse on this site, cookies collect data to enhance your experience and personalize the content and advertising you see.
Visit our Privacy Policy to learn more. By continuing to use the site, you agree to this use of cookies and data.
  • In Romania
  • List of Countries
  • For 7 days
  • Water Temperature
  • Weather Map
  • Weather Widgets
  • user-avatar
    Login

    Hourly Weather Ghanzi

    Today, 3 April, Friday

    Time Temperature Precipitation Wind Pressure Humidity
    00:00 +26°C° 0 mm 4 mps 712 mmHg 19%
    01:00 +25°C° 0 mm 4 mps 712 mmHg 21%
    02:00 +25°C° 0 mm 4 mps 712 mmHg 21%
    03:00 +23°C° 0 mm 4 mps 712 mmHg 21%
    04:00 +23°C° 0 mm 4 mps 712 mmHg 21%
    05:00 +24°C° 0 mm 3 mps 712 mmHg 20%
    06:00 +25°C° 0 mm 3 mps 712 mmHg 19%
    07:00 +26°C° 0 mm 3 mps 713 mmHg 16%
    08:00 +29°C° 0 mm 3 mps 713 mmHg 14%
    09:00 +33°C° 0 mm 4 mps 713 mmHg 12%
    10:00 +36°C° 0 mm 5 mps 714 mmHg 10%
    11:00 +39°C° 0 mm 5 mps 713 mmHg 9%
    12:00 +41°C° 0 mm 5 mps 712 mmHg 8%
    13:00 +42°C° 0 mm 5 mps 712 mmHg 8%
    14:00 +42°C° 0 mm 5 mps 712 mmHg 8%
    15:00 +42°C° 0 mm 5 mps 711 mmHg 7%
    16:00 +42°C° 0 mm 4 mps 711 mmHg 7%
    17:00 +40°C° 0 mm 4 mps 711 mmHg 8%
    18:00 +36°C° 0 mm 4 mps 710 mmHg 9%
    19:00 +34°C° 0 mm 3 mps 710 mmHg 10%
    20:00 +33°C° 0 mm 3 mps 710 mmHg 11%
    21:00 +31°C° 0 mm 3 mps 710 mmHg 11%
    22:00 +30°C° 0 mm 2 mps 711 mmHg 12%
    23:00 +30°C° 0 mm 3 mps 710 mmHg 12%

    Tomorrow, 4 April, Saturday

    Time Temperature Precipitation Wind Pressure Humidity
    00:00 +30°C° 0 mm 3 mps 710 mmHg 12%
    01:00 +30°C° 0 mm 3 mps 710 mmHg 12%
    02:00 +29°C° 0 mm 3 mps 710 mmHg 13%
    03:00 +28°C° 0 mm 3 mps 710 mmHg 14%
    04:00 +27°C° 0 mm 3 mps 710 mmHg 14%
    05:00 +28°C° 0 mm 4 mps 711 mmHg 13%
    06:00 +29°C° 0 mm 4 mps 711 mmHg 13%
    07:00 +30°C° 0 mm 5 mps 712 mmHg 12%
    08:00 +35°C° 0 mm 6 mps 712 mmHg 10%
    09:00 +39°C° 0 mm 7 mps 713 mmHg 8%
    10:00 +43°C° 0 mm 8 mps 713 mmHg 6%
    11:00 +44°C° 0 mm 7 mps 713 mmHg 6%
    12:00 +45°C° 0 mm 6 mps 712 mmHg 6%
    13:00 +46°C° 0 mm 6 mps 711 mmHg 5%
    14:00 +46°C° 0 mm 5 mps 711 mmHg 5%
    15:00 +46°C° 0 mm 5 mps 710 mmHg 5%
    16:00 +46°C° 0 mm 5 mps 710 mmHg 5%
    17:00 +43°C° 0 mm 4 mps 710 mmHg 6%
    18:00 +40°C° 0 mm 4 mps 710 mmHg 7%
    19:00 +37°C° 0 mm 4 mps 710 mmHg 8%
    20:00 +35°C° 0 mm 5 mps 711 mmHg 9%
    21:00 +33°C° 0 mm 7 mps 712 mmHg 10%
    22:00 +31°C° 0 mm 8 mps 712 mmHg 12%
    23:00 +29°C° 0 mm 8 mps 712 mmHg 16%

    Day after tomorrow, 5 April, Sunday

    Time Temperature Precipitation Wind Pressure Humidity
    00:00 +27°C° 0 mm 7 mps 712 mmHg 21%
    01:00 +26°C° 0 mm 7 mps 713 mmHg 26%
    02:00 +24°C° 0 mm 7 mps 713 mmHg 28%
    03:00 +23°C° 0 mm 8 mps 713 mmHg 31%
    04:00 +22°C° 0 mm 8 mps 713 mmHg 34%
    05:00 +22°C° 0 mm 8 mps 714 mmHg 34%
    06:00 +23°C° 0 mm 8 mps 715 mmHg 35%
    07:00 +23°C° 0 mm 9 mps 715 mmHg 35%
    08:00 +26°C° 0 mm 8 mps 716 mmHg 30%
    09:00 +28°C° 0 mm 8 mps 716 mmHg 25%
    10:00 +32°C° 0 mm 7 mps 716 mmHg 20%
    11:00 +33°C° 0 mm 7 mps 716 mmHg 17%
    12:00 +35°C° 0 mm 7 mps 715 mmHg 14%
    13:00 +38°C° 0 mm 6 mps 715 mmHg 11%
    14:00 +38°C° 0 mm 6 mps 714 mmHg 11%
    15:00 +38°C° 0 mm 6 mps 714 mmHg 10%
    16:00 +39°C° 0 mm 6 mps 713 mmHg 10%
    17:00 +35°C° 0 mm 6 mps 713 mmHg 11%
    18:00 +33°C° 0 mm 6 mps 713 mmHg 13%
    19:00 +30°C° 0 mm 6 mps 713 mmHg 15%
    20:00 +29°C° 0 mm 6 mps 714 mmHg 16%
    21:00 +28°C° 0 mm 6 mps 714 mmHg 18%
    22:00 +27°C° 0 mm 7 mps 715 mmHg 20%
    23:00 +24°C° 0 mm 7 mps 714 mmHg 22%

    6 April, Monday

    Time Temperature Precipitation Wind Pressure Humidity
    00:00 +23°C° 0 mm 7 mps 714 mmHg 25%
    01:00 +22°C° 0 mm 7 mps 714 mmHg 27%
    02:00 +21°C° 0 mm 7 mps 714 mmHg 29%
    03:00 +20°C° 0 mm 6 mps 714 mmHg 31%
    04:00 +20°C° 0 mm 6 mps 714 mmHg 33%
    05:00 +20°C° 0 mm 7 mps 715 mmHg 33%
    06:00 +20°C° 0 mm 7 mps 715 mmHg 32%
    07:00 +21°C° 0 mm 8 mps 716 mmHg 31%
    08:00 +24°C° 0 mm 8 mps 716 mmHg 27%
    09:00 +27°C° 0 mm 7 mps 716 mmHg 22%
    10:00 +30°C° 0 mm 7 mps 716 mmHg 17%
    11:00 +33°C° 0 mm 6 mps 716 mmHg 15%
    12:00 +35°C° 0 mm 5 mps 715 mmHg 13%
    13:00 +37°C° 0 mm 4 mps 715 mmHg 11%
    14:00 +37°C° 0 mm 4 mps 714 mmHg 11%
    15:00 +37°C° 0 mm 4 mps 714 mmHg 10%
    16:00 +39°C° 0 mm 5 mps 713 mmHg 10%
    17:00 +36°C° 0 mm 5 mps 713 mmHg 12%
    18:00 +33°C° 0 mm 6 mps 713 mmHg 14%
    19:00 +30°C° 0 mm 7 mps 713 mmHg 16%
    20:00 +29°C° 0 mm 7 mps 714 mmHg 17%
    21:00 +28°C° 0 mm 7 mps 715 mmHg 17%
    22:00 +27°C° 0 mm 7 mps 715 mmHg 18%
    23:00 +26°C° 0 mm 8 mps 715 mmHg 21%

    7 April, Tuesday

    Time Temperature Precipitation Wind Pressure Humidity
    00:00 +23°C° 0 mm 8 mps 715 mmHg 24%
    01:00 +21°C° 0 mm 8 mps 715 mmHg 27%
    02:00 +21°C° 0 mm 8 mps 715 mmHg 28%
    03:00 +20°C° 0 mm 8 mps 715 mmHg 30%
    04:00 +18°C° 0 mm 8 mps 715 mmHg 31%
    05:00 +20°C° 0 mm 8 mps 715 mmHg 29%
    06:00 +19°C° 0 mm 9 mps 716 mmHg 28%
    07:00 +19°C° 0 mm 9 mps 716 mmHg 26%
    08:00 +23°C° 0 mm 9 mps 717 mmHg 23%
    09:00 +26°C° 0 mm 9 mps 717 mmHg 19%
    10:00 +28°C° 0 mm 9 mps 717 mmHg 16%
    11:00 +31°C° 0 mm 8 mps 717 mmHg 15%
    12:00 +32°C° 0 mm 8 mps 716 mmHg 13%
    13:00 +34°C° 0 mm 7 mps 716 mmHg 12%
    14:00 +34°C° 0 mm 7 mps 715 mmHg 12%
    15:00 +34°C° 0 mm 7 mps 715 mmHg 12%
    16:00 +34°C° 0 mm 8 mps 714 mmHg 12%
    17:00 +32°C° 0 mm 7 mps 714 mmHg 13%
    18:00 +29°C° 0 mm 7 mps 714 mmHg 15%
    19:00 +27°C° 0 mm 6 mps 715 mmHg 17%
    20:00 +26°C° 0 mm 7 mps 715 mmHg 17%
    21:00 +24°C° 0 mm 8 mps 716 mmHg 18%
    22:00 +23°C° 0 mm 9 mps 716 mmHg 19%
    23:00 +22°C° 0 mm 8 mps 716 mmHg 20%

    8 April, Wednesday

    Time Temperature Precipitation Wind Pressure Humidity
    00:00 +21°C° 0 mm 7 mps 716 mmHg 21%
    01:00 +20°C° 0 mm 6 mps 715 mmHg 22%
    02:00 +19°C° 0 mm 6 mps 715 mmHg 23%
    03:00 +17°C° 0 mm 5 mps 715 mmHg 24%
    04:00 +17°C° 0 mm 5 mps 715 mmHg 25%
    05:00 +17°C° 0 mm 6 mps 716 mmHg 23%
    06:00 +18°C° 0 mm 7 mps 716 mmHg 21%
    07:00 +18°C° 0 mm 8 mps 717 mmHg 19%
    08:00 +21°C° 0 mm 8 mps 717 mmHg 17%
    09:00 +23°C° 0 mm 8 mps 717 mmHg 14%
    10:00 +27°C° 0 mm 8 mps 718 mmHg 12%
    11:00 +28°C° 0 mm 7 mps 717 mmHg 12%
    12:00 +29°C° 0 mm 7 mps 716 mmHg 11%
    13:00 +30°C° 0 mm 6 mps 716 mmHg 10%
    14:00 +30°C° 0 mm 6 mps 715 mmHg 10%
    15:00 +32°C° 0 mm 6 mps 715 mmHg 10%
    16:00 +32°C° 0 mm 6 mps 714 mmHg 10%
    17:00 +29°C° 0 mm 5 mps 714 mmHg 12%
    18:00 +27°C° 0 mm 5 mps 715 mmHg 14%
    19:00 +25°C° 0 mm 4 mps 715 mmHg 16%
    20:00 +23°C° 0 mm 5 mps 715 mmHg 17%
    21:00 +22°C° 0 mm 6 mps 715 mmHg 18%
    22:00 +22°C° 0 mm 6 mps 716 mmHg 20%
    23:00 +21°C° 0 mm 6 mps 715 mmHg 21%
    Show more